Voltar ao catálogo

ARIANE 44L+ R/B

AtivoHEO
NORAD 22725·ROCKET BODY·🇫🇷 France

Lançado Jul 22, 1993 de Guiana Space Centre

Loading…

Próximas Passagens (próximas 24 horas)

TLE

AtualizadoSource: Space-Track

Época: Sep 14, 2026, 10:14 UTC

1 22725U 93048C   26257.42699897  .00000956  00000-0  10636-2 0  9996
2 22725   7.2008 325.2589 6879143 290.0381  11.7641  2.74967218315579

Acompanhe ARIANE 44L+ R/B em tempo real com AllMySat

Download on the App Store